Location: Astroquest
(35.1187°N, 89.7105°W)
Time: 19:26:58
(UTC-05:00)

Envisat - Visible Passes

Search period start: 18 July 2018 00:00
Search period end: 28 July 2018 00:00
Orbit: 764 x 766 km, 98.2° (Epoch: 18 July)

Date Brightness Start Highest point End Pass type
(mag) Time Alt. Az. Time Alt. Az. Time Alt. Az.
18 Jul 5.5 21:21:58 10° SW 21:25:30 19° W 21:29:01 10° NW visible
19 Jul 4.2 20:43:44 10° S 20:48:33 44° W 20:53:24 10° NNW visible
21 Jul 5.2 21:10:10 10° SSW 21:14:15 24° W 21:18:20 10° NW visible
22 Jul 3.7 20:32:24 10° S 20:37:22 58° W 20:42:23 10° NNW visible
23 Jul 5.7 21:37:46 10° WSW 21:40:02 13° W 21:42:17 10° WNW visible
24 Jul 4.8 20:58:34 10° SSW 21:03:01 31° W 21:07:30 10° NW visible
26 Jul 5.6 21:25:32 10° SW 21:28:45 17° W 21:32:00 10° NW visible
27 Jul 4.4 20:47:04 10° SSW 20:51:49 40° W 20:56:34 10° NNW visible
